This is the latest recevied weather packets stored in our database for station/object KE8AFF-13. If no packets are shown the sender has not sent any weather packets the latest 10 day(s).
| Time | Temp. | Humidity | Pressure | Rain* | Wind** | Luminosity | Snow |
|---|---|---|---|---|---|---|---|
| 1777817089 | 9.44° C | 62% | 1018.8 hPa | 0 mm | - | 572 W/m² | - |
| 1777816785 | 9.44° C | 62% | 1018.6 hPa | 0 mm | - | 581 W/m² | - |
| 1777816483 | 9.44° C | 62% | 1018.9 hPa | 0 mm | - | 567 W/m² | - |
| 1777816180 | 8.89° C | 62% | 1018.7 hPa | 0 mm | - | 567 W/m² | - |
| 1777815878 | 8.89° C | 62% | 1018.9 hPa | 0 mm | - | 523 W/m² | - |
| 1777815575 | 8.89° C | 62% | 1018.9 hPa | 0 mm | - | 472 W/m² | - |
| 1777815273 | 8.89° C | 62% | 1018.8 hPa | 0 mm | - | 441 W/m² | - |
| 1777814968 | 8.33° C | 62% | 1019.1 hPa | 0 mm | - | 433 W/m² | - |
| 1777814665 | 7.78° C | 62% | 1019 hPa | 0 mm | - | 412 W/m² | - |
| 1777814362 | 7.78° C | 62% | 1019 hPa | 0 mm | - | 376 W/m² | - |
| 1777814059 | 7.78° C | 61% | 1018.9 hPa | 0 mm | - | 366 W/m² | - |
| 1777813756 | 7.78° C | 62% | 1019 hPa | 0 mm | - | 332 W/m² | - |
| 1777813454 | 7.78° C | 60% | 1019.1 hPa | 0 mm | - | 320 W/m² | - |
| 1777813151 | 7.78° C | 61% | 1019.1 hPa | 0 mm | - | 313 W/m² | - |
| 1777812849 | 7.22° C | 62% | 1019.2 hPa | 0 mm | - | 274 W/m² | - |
| 1777812544 | 7.22° C | 63% | 1019.2 hPa | 0 mm | - | 280 W/m² | - |
| 1777812243 | 6.67° C | 64% | 1019.4 hPa | 0 mm | - | 254 W/m² | - |
| 1777811941 | 6.67° C | 65% | 1019.2 hPa | 0 mm | - | 246 W/m² | - |
| 1777811639 | 6.11° C | 65% | 1019.3 hPa | 0 mm | - | 233 W/m² | - |
| 1777811334 | 6.11° C | 65% | 1019.3 hPa | 0 mm | - | 216 W/m² | - |
| 1777811031 | 6.11° C | 66% | 1019.3 hPa | 0 mm | - | 75 W/m² | - |
| 1777810728 | 5.56° C | 66% | 1019.3 hPa | 0 mm | - | 69 W/m² | - |
| 1777810425 | 5.56° C | 67% | 1019.2 hPa | 0 mm | - | 58 W/m² | - |
| 1777810120 | 5° C | 67% | 1019.3 hPa | 0 mm | - | 157 W/m² | - |
| 1777809818 | 5° C | 69% | 1018.9 hPa | 0 mm | - | 122 W/m² | - |
* Rain latest hour (hover to see other rain measurements)
** Current wind speed in m/s (hover to see current wind gust speed)